Tracking 19644 objects as of 24-Apr-2019
HD Live streaming from Space Station
objects crossing your sky now

THORAD DELTA 1 DEB

Track THORAD DELTA 1 DEB now!
10-day predictions


NORAD ID: 8555
Int'l Code: 1974-089CS
Perigee: 1,407.6 km
Apogee: 1,509.4 km
Inclination: 101.3 °
Period: 114.9 minutes
Semi major axis: 7829 km
RCS: 0.0537 m2 (small)
Launch date: November 15, 1974
Source: United States (US)
Launch site: AIR FORCE WESTERN TEST RANGE (AFWTR)

Note: This is SATELLITE DEBRIS
aabbcc
Your satellite tracking list
Your tracking list is empty




NASA's NSSDC Master Catalog

Two Line Element Set (TLE):
1  8555U 74089CS  19112.77196972 +.00000007 +00000-0 +30319-3 0  9999
2  8555 101.2796 301.6831 0065006 118.0004 310.3220 12.53142377025906
Source of the keplerian elements: AFSPC